Location: Newark
(50.4348°N, 30.5552°E)
Time: 19:08:20
(UTC+00:00)

Transit 2A Rocket - Pass Details

Date: 29 January 2020
Orbit: 592 x 911 km, 66.7° (Epoch: 19 February)

Event Time Altitude Azimuth Distance (km) Brightness Sun altitude
Exits shadow 03:09:42 60° 354° (N) 692 4.7 -23.5°
Drops below altitude 10° 03:13:33 10° 33° (NNE) 1,982 7.5 -22.9°
Sets 03:15:53 0° 37° (NE) 2,924 8.5 -22.5°
